RH
88 87 87 84 79 80 83 86 85 76 43 30 34 36 54 66 62 63 64 61 57 49 42 41 43 45 50 54 71 60 62 65 66 66 63 65 44 44 58 65 67 66 67
91 91 88 82 86 84 81 83 83 87 72 43 39 49 66 76 71 70 62 62 58 53 43 39 44 45 50 52 52 60 67 67 70 71 73 60 36 42 42 61 69 72 71
86 90 86 78 80 85 84 92 92 92 87 73 70 70 71 71 72 69 65 69 68 63 52 53 45 49 51 54 56 55 60 70 74 73 76 68 39 34 40 50 65 72 78
80 82 84 86 85 86 84 90 95 98 95 83 74 76 77 77 70 63 62 64 62 59 60 62 54 48 50 56 64 67 69 70 72 73 75 74 57 40 40 44 54 68 76
80 84 89 88 93 88 86 88 92 97 94 92 82 79 81 82 81 77 71 68 66 67 69 66 60 50 55 57 65 68 70 77 76 75 76 76 77 64 56 48 52 61 76
82 81 90 96 90 92 93 92 90 90 88 87 91 91 90 85 86 87 84 79 67 65 63 61 59 53 53 59 60 66 67 67 76 76 74 76 68 67 66 63 61 64 71
80 81 97 100 96 90 86 86 86 84 80 80 91 82 86 87 82 81 78 83 80 67 62 62 60 53 56 67 67 63 60 66 69 73 76 74 66 68 70 67 67 71 78
86 81 86 84 81 80 83 81 77 75 77 77 94 98 98 86 74 76 78 76 74 76 82 75 64 61 70 71 69 73 71 62 65 65 70 64 62 68 73 75 76 72 80
92 82 83 82 81 74 77 70 67 69 72 71 78 93 91 90 82 78 77 78 77 76 69 69 69 67 80 77 80 70 73 67 67 67 65 58 54 62 71 80 83 85 84
77 90 84 98 88 83 82 78 77 80 76 68 83 90 93 98 96 85 81 78 80 74 68 73 78 81 80 80 78 64 59 56 58 62 72 68 68 66 69 81 93 96 87
58 59 83 93 97 80 75 75 78 77 70 76 83 87 89 92 93 100 98 97 94 85 84 92 91 87 92 84 77 74 72 68 64 71 71 72 70 67 70 81 94 95 91
67 74 76 83 85 84 83 78 79 75 72 87 92 89 87 99 98 98 100 100 98 92 90 89 85 80 82 77 69 70 76 77 75 72 74 76 66 78 95 90 89 91 91
65 78 81 78 78 79 76 78 86 83 88 94 89 95 98 95 100 100 100 100 99 98 92 90 82 79 77 81 79 85 87 80 81 94 100 95 90 88 89 89 85 87 90
63 75 77 76 79 80 84 92 82 64 66 86 87 86 94 98 94 94 99 99 100 96 91 83 80 80 81 92 98 100 97 98 98 99 96 92 90 88 86 87 87 83 97
81 84 82 82 79 81 85 86 100 100 94 95 94 96 100 94 86 97 100 100 100 100 97 79 89 98 98 100 100 99 100 100 98 95 96 87 79 81 80 79 86 89 97
93 93 90 99 99 100 98 98 98 99 99 100 99 100 100 99 100 100 100 98 100 100 100 98 100 100 100 99 99 99 100 99 93 90 78 66 57 63 67 74 82 92 100
88 96 91 89 93 98 99 99 95 90 87 99 98 98 100 100 100 100 100 99 100 100 100 100 98 100 100 99 99 98 90 66 48 40 41 41 39 39 41 58 81 85 94
90 89 88 89 86 92 89 92 98 99 99 99 100 100 100 99 100 100 100 100 100 100 100 99 98 94 79 58 39 27 18 15 16 15 14 14 23 42 62 63 73 79 98
99 96 92 95 95 99 96 95 87 88 98 100 100 99 100 100 100 100 100 100 96 82 62 53 35 23 16 14 15 17 20 18 22 29 25 19 23 32 46 64 80 84 87
99 100 100 100 94 94 98 98 89 85 94 96 93 88 76 70 57 42 34 28 21 17 16 16 16 13 13 10 15 21 19 25 38 26 17 22 32 61 78 74 70 78 82
99 97 93 78 77 80 95 79 65 39 41 34 28 23 19 16 14 13 13 14 13 12 12 12 14 17 18 19 34 35 47 37 33 33 34 44 36 50 48 60 66 75 79
45 44 44 46 37 45 36 21 19 22 21 17 18 16 16 16 15 13 12 12 12 12 12 15 15 20 18 30 37 44 50 59 97 64 94 92 90 68 47 67 66 86 85
22 19 18 19 20 19 20 20 17 17 18 18 19 20 16 14 13 14 14 14 13 15 15 18 20 32 31 34 55 63 76 92 98 88 92 97 98 80 78 78 76 82 86
21 20 18 19 19 17 17 15 14 15 18 19 18 18 18 16 14 14 12 12 14 17 19 22 29 28 41 66 93 100 99 98 97 98 98 100 85 82 96 96 84 95 86
18 18 17 16 15 15 15 14 14 16 19 19 18 17 16 17 18 17 17 19 21 24 26 29 34 41 50 57 83 96 92 98 98 98 83 96 98 99 87 94 92 99 98
17 16 17 16 15 17 18 17 15 17 17 18 19 22 23 21 22 25 29 32 34 43 38 35 44 48 50 64 97 100 100 100 100 99 95 100 100 100 98 98 87 96 99
Wind_Speed
16 17 19 22 21 20 21 23 21 19 19 20 20 19 17 16 16 14 18 16 16 14 12 12 12 12 11 10 10 9 10 10 9 10 11 12 12 12 12 12 12 13 13
22 22 23 23 23 22 23 23 22 21 18 18 19 22 20 20 20 19 18 19 18 17 16 14 14 14 14 12 12 11 12 12 12 13 13 13 13 13 13 14 15 16 15
28 23 27 28 29 25 22 21 19 19 17 17 18 18 20 21 24 24 22 22 22 23 21 18 15 16 17 15 14 14 15 16 16 15 15 15 14 14 14 15 16 17 19
28 27 30 30 30 27 25 24 25 25 24 21 22 22 24 25 23 24 23 23 23 22 21 20 18 16 17 18 18 18 17 17 17 17 17 16 16 17 17 17 19 20 21
30 33 32 33 31 30 28 24 27 30 27 26 27 27 27 25 23 23 24 23 23 24 24 24 22 19 19 19 19 19 19 19 19 18 17 16 16 16 18 19 21 22 23
28 31 30 30 30 29 29 28 26 27 28 26 24 23 27 28 28 30 30 30 29 29 28 28 26 24 22 22 21 21 20 21 20 19 19 18 14 14 16 17 21 24 25
32 32 32 29 28 29 27 24 22 22 20 21 19 22 25 24 26 27 28 27 28 31 31 30 29 29 26 24 24 23 22 20 20 21 21 18 18 20 21 22 24 26 27
31 32 33 32 30 30 27 26 24 21 22 22 22 23 26 26 29 30 31 32 31 32 31 31 32 30 28 28 24 22 20 19 18 20 19 20 25 27 29 30 29 30 31
35 32 29 32 34 33 28 27 23 22 25 26 25 21 10 14 19 22 24 26 27 27 28 27 30 31 30 28 24 25 21 16 18 17 19 25 31 32 31 33 34 34 33
39 36 31 30 32 32 31 28 26 24 24 27 24 27 30 33 25 23 25 25 25 26 29 28 28 28 27 26 21 15 16 19 19 21 23 25 29 34 38 35 35 37 36
29 38 38 32 30 29 29 29 28 28 27 26 26 28 30 33 36 38 31 26 27 31 27 28 28 29 23 22 23 15 21 22 25 25 29 32 34 36 37 37 36 35 37
28 30 36 35 37 32 36 32 29 28 26 24 26 29 30 29 29 31 34 33 24 29 31 28 25 27 27 22 31 31 28 25 27 30 33 34 37 36 34 37 38 33 27
28 29 29 29 31 32 30 27 26 25 24 26 27 28 29 30 31 41 33 27 25 25 27 29 30 31 31 28 22 23 24 25 29 29 28 30 29 31 32 31 32 28 26
25 25 27 27 27 26 24 22 25 25 24 25 27 29 29 30 29 37 37 32 25 25 25 28 27 28 23 20 18 21 25 26 26 29 29 30 31 32 33 34 34 32 27
22 21 22 25 25 24 24 25 25 25 26 27 28 28 30 27 26 29 32 27 22 18 21 24 19 17 16 16 24 25 23 25 27 32 32 34 35 38 39 39 35 33 32
19 20 21 18 18 17 19 22 24 24 24 26 27 27 27 26 27 19 18 18 18 22 22 21 16 18 26 23 23 24 26 30 34 36 38 39 39 38 38 37 35 33 31
19 19 18 19 19 17 18 23 26 29 29 25 29 29 30 27 22 19 18 18 22 21 18 17 17 18 23 24 28 31 33 34 34 34 34 36 37 37 38 38 38 38 35
16 18 19 20 21 23 20 12 15 19 24 22 23 22 21 16 18 18 19 21 26 23 21 21 23 25 26 28 31 33 34 33 33 32 33 33 34 33 34 35 35 38 37
15 15 15 12 12 13 14 10 6 7 5 15 14 18 13 15 12 14 14 13 14 15 18 20 24 25 27 27 28 28 29 29 30 30 30 30 29 28 28 30 29 27 31
15 13 8 6 2 1 3 6 4 5 7 4 3 4 5 7 9 10 11 12 14 15 17 19 21 23 24 24 25 27 29 28 30 31 32 29 27 26 26 27 27 26 24
8 9 5 2 2 3 3 5 3 1 5 4 4 5 6 7 9 9 11 12 14 16 17 19 20 21 22 24 25 27 30 32 30 30 29 26 28 28 30 31 29 28 27
4 3 3 2 3 4 2 3 2 4 4 4 5 7 6 7 9 10 12 14 15 17 19 20 21 23 23 23 24 26 27 29 29 28 29 32 31 31 27 29 25 24 27
0 1 1 0 1 1 1 1 2 3 4 4 4 4 6 7 7 9 11 13 15 17 19 21 21 21 22 22 22 23 23 24 28 30 31 35 31 32 29 27 24 25 26
1 1 1 1 1 2 2 3 3 4 3 3 4 4 6 8 9 11 13 14 14 15 16 17 19 20 21 21 20 20 23 26 28 27 23 32 32 27 27 28 22 24 20
2 3 3 2 3 3 3 4 4 4 4 4 5 6 7 8 10 12 14 15 15 16 16 18 20 20 18 17 13 16 20 23 27 28 27 26 27 28 33 31 20 17 19
4 5 5 5 3 3 3 4 4 5 6 6 6 7 9 10 12 15 16 17 18 19 20 19 20 21 20 17 13 12 16 21 24 27 26 25 30 26 26 23 20 26 21
Wind_Direction
225 233 241 246 254 253 246 240 241 242 239 234 237 235 232 234 238 240 243 251 261 264 268 269 268 270 270 274 264 261 270 281 289 304 309 304 298 294 293 294 298 302 311
233 242 241 248 252 258 250 242 242 240 240 238 235 233 234 240 241 246 248 253 260 265 267 266 266 265 264 269 260 258 268 279 289 294 302 307 302 293 297 294 295 297 301
229 236 238 245 249 257 251 238 239 243 241 238 246 248 246 251 251 245 249 253 259 268 270 268 270 267 263 264 264 263 269 278 284 290 295 301 302 299 297 297 293 292 295
233 233 241 245 249 249 250 242 230 236 238 237 245 245 251 262 260 253 251 254 258 265 269 270 273 270 264 261 265 268 272 278 281 286 293 301 307 304 301 298 296 291 290
237 232 233 243 249 247 245 244 241 236 234 232 237 243 252 258 262 264 258 255 255 260 266 271 274 274 271 264 261 266 271 275 277 277 281 292 302 306 307 304 300 294 289
241 241 240 237 240 241 243 244 240 241 244 247 242 252 255 258 266 267 265 262 254 254 260 265 269 273 273 268 261 258 264 265 270 276 278 281 287 302 305 306 302 299 292
242 239 236 236 235 236 235 236 241 243 243 250 250 258 262 263 262 262 275 270 264 262 260 258 263 268 267 267 262 258 264 268 269 269 271 272 280 290 299 307 303 301 291
243 242 241 239 238 234 233 236 238 249 250 248 248 256 268 271 265 266 269 265 270 270 271 265 261 264 265 265 271 270 265 266 269 275 266 264 288 293 296 298 302 301 286
238 242 241 239 237 237 231 237 243 245 251 260 253 252 257 258 276 270 270 269 266 271 274 267 259 255 255 264 268 271 271 267 267 273 272 279 289 291 293 292 297 298 287
236 242 240 237 242 238 236 241 248 254 254 258 253 251 257 261 269 280 272 269 273 270 264 259 256 252 254 255 263 271 284 286 286 282 282 287 289 288 289 289 287 289 287
243 237 243 237 237 249 244 247 252 256 255 256 253 259 262 263 264 262 270 269 270 265 257 251 249 251 251 239 240 262 282 284 288 285 285 286 285 284 288 287 287 287 290
255 243 240 243 247 245 251 251 251 251 255 253 255 259 260 260 264 262 264 263 258 269 241 231 235 236 235 249 264 268 282 281 280 283 282 281 282 285 288 291 290 289 286
255 251 248 242 243 244 247 248 249 252 254 256 260 259 261 262 266 263 264 260 265 257 257 259 253 259 261 278 272 276 277 282 287 287 285 287 290 293 290 291 290 286 279
262 259 248 250 257 250 247 249 252 259 256 260 263 264 264 263 266 263 267 265 252 258 262 266 272 274 275 283 273 278 284 282 280 280 285 289 291 291 293 292 291 285 274
260 252 248 247 250 241 241 253 252 257 259 262 264 265 263 262 270 274 260 249 249 252 267 276 282 286 273 263 285 282 269 270 276 283 284 284 286 285 286 285 282 278 276
258 247 242 245 250 249 243 247 255 260 261 266 268 268 261 267 259 248 252 252 251 260 262 269 254 253 275 279 270 271 274 281 286 285 285 286 285 282 281 278 277 275 270
250 250 243 248 252 263 268 262 265 269 270 265 271 255 255 243 244 251 246 254 252 248 247 257 262 247 264 264 271 279 284 284 285 286 286 285 285 284 281 278 275 272 269
240 244 255 259 267 276 278 277 276 262 259 260 256 244 234 252 222 229 242 242 256 261 264 269 274 280 285 285 286 286 285 286 289 289 284 283 282 283 285 283 283 279 277
232 238 259 246 247 244 244 236 241 259 237 220 222 223 223 221 233 247 250 256 270 280 284 285 286 290 291 293 291 292 292 292 290 290 289 288 287 287 286 286 286 288 281
170 176 165 150 155 109 161 158 179 193 235 253 229 236 242 257 262 266 275 280 283 286 290 293 295 298 301 303 305 309 306 307 308 308 308 308 299 295 290 289 288 286 285
127 140 154 108 48 320 337 30 341 189 221 242 258 261 267 274 281 289 293 296 298 301 301 302 304 305 309 312 313 311 307 308 308 313 317 316 311 305 301 298 296 295 290
51 46 59 317 305 307 344 270 223 224 242 258 267 275 286 301 314 316 315 314 314 311 308 308 309 308 308 307 308 309 310 316 319 326 319 314 317 307 305 309 297 308 302
23 309 324 25 101 150 198 229 256 270 271 264 264 278 290 302 310 310 309 310 311 309 305 301 301 303 302 304 309 313 313 315 314 316 315 313 311 313 317 310 307 298 297
254 241 212 216 220 243 257 266 272 268 271 267 277 293 308 320 316 313 310 309 304 304 301 298 297 298 303 309 309 312 312 309 309 315 318 310 315 317 319 316 311 303 293
281 286 278 262 260 264 259 266 288 301 297 303 307 307 305 305 303 302 309 312 312 311 309 308 305 305 303 303 297 301 314 318 317 316 321 319 317 314 316 322 330 316 312
253 258 267 276 276 278 277 282 285 286 279 278 283 289 298 306 315 318 319 321 321 321 320 318 314 312 313 311 308 299 310 311 311 316 316 309 311 318 319 318 317 316 321